GEFSMW_850_meantemp_024.txt.gz
Temperature
18 18 18 18 18 19 19 20 19 19 18 17 17 17 15 14 14 14 13 13 13 13 12 12 12 12 11 11 11 11 10 10 10 10 10 9 8 8 7 7 7 6 6
17 18 18 18 18 18 18 19 19 19 18 17 18 17 15 14 14 14 13 13 13 12 12 12 12 12 11 11 11 10 10 10 10 10 9 8 8 7 7 6 6 6 5
17 17 17 17 17 17 18 18 18 18 18 17 16 15 14 14 13 13 13 13 13 12 12 12 12 11 11 11 10 10 10 9 9 9 8 8 7 7 7 6 5 5 5
17 17 17 17 17 17 17 17 17 18 17 17 16 15 15 14 14 13 13 13 12 12 12 11 11 11 11 10 10 10 9 9 8 8 7 7 6 5 6 5 5 4 4
17 17 17 17 17 17 17 17 17 17 17 16 15 15 15 15 14 13 13 12 12 11 11 11 11 11 10 10 10 9 9 8 8 7 6 6 5 4 3 3 4 4 3
17 17 16 16 16 16 16 17 17 17 16 15 14 14 14 15 14 13 12 12 12 11 11 10 10 10 10 10 9 9 8 7 7 6 6 5 4 3 2 2 2 3 3
16 16 15 15 15 15 15 16 16 16 15 14 13 13 13 14 14 13 12 12 12 11 10 10 10 10 10 9 9 8 8 7 6 6 5 4 3 3 2 1 1 1 2
16 15 14 14 14 14 15 15 15 15 14 13 12 12 11 13 13 12 12 12 12 11 10 10 9 9 9 9 8 8 7 6 5 5 4 4 3 2 2 1 -0 -1 -1
15 14 14 13 13 14 14 14 14 14 13 12 11 11 11 11 11 11 11 12 11 10 10 9 9 9 9 8 7 7 6 5 5 4 3 3 2 2 1 0 -1 -2 -4
14 14 13 13 13 13 14 14 14 13 12 11 10 10 10 10 11 11 11 11 11 10 9 9 8 8 8 7 7 6 5 5 4 3 3 2 2 1 1 -0 -1 -3 -4
14 13 12 12 12 12 13 13 13 12 11 10 10 10 10 10 10 10 10 10 10 9 9 8 8 8 7 7 6 5 5 4 3 2 2 1 1 0 -0 -1 -2 -3 -5
13 12 11 11 11 12 12 12 12 11 10 10 9 9 10 10 9 9 9 9 9 9 8 8 8 7 6 6 5 4 4 3 2 2 1 1 -0 -1 -2 -3 -4 -5 -6
11 11 10 10 10 11 11 11 11 10 10 9 9 9 9 9 8 8 8 8 8 8 7 7 7 6 5 5 4 3 3 2 2 1 0 -0 -1 -2 -3 -4 -5 -6 -7
10 9 9 9 9 9 9 9 9 9 9 8 8 8 8 8 7 7 7 7 7 7 7 6 6 5 4 4 3 3 2 2 1 0 -0 -1 -2 -3 -5 -6 -6 -7 -8
8 8 8 8 8 8 8 8 8 8 8 7 7 7 7 6 6 6 6 6 7 7 6 5 5 4 3 3 2 2 1 1 0 -0 -1 -2 -4 -5 -6 -7 -7 -7 -8
7 7 7 7 7 7 7 7 7 7 6 6 5 5 5 5 5 5 5 6 6 6 5 4 4 3 3 2 1 1 1 0 -0 -1 -2 -4 -4 -6 -7 -7 -8 -8 -8
7 7 6 6 6 6 6 6 6 5 4 4 4 4 4 4 4 4 5 6 5 5 4 3 3 2 2 1 1 0 -0 -1 -1 -2 -4 -5 -6 -7 -7 -8 -8 -8 -8
6 5 5 4 4 4 4 4 3 3 2 2 2 3 3 3 4 4 5 5 4 3 3 2 2 1 1 0 -0 -1 -1 -2 -2 -4 -5 -6 -7 -7 -8 -8 -8 -8 -8
4 4 3 3 3 2 2 2 1 1 1 1 2 2 3 4 4 4 4 3 3 2 2 1 1 0 -0 -0 -1 -2 -2 -3 -4 -5 -6 -7 -8 -8 -8 -8 -9 -9 -8
2 2 2 1 1 0 0 1 0 1 1 2 3 3 3 4 4 3 3 2 2 2 1 0 -0 -1 -1 -2 -2 -3 -3 -4 -5 -5 -6 -7 -8 -8 -9 -9 -9 -9 -9
1 1 0 0 -0 0 1 1 1 2 3 3 3 3 3 3 3 3 2 2 1 0 0 -0 -1 -1 -2 -3 -4 -4 -5 -7 -7 -7 -7 -7 -8 -9 -9 -9 -9 -9 -9
0 0 0 0 0 1 2 3 3 3 3 3 3 3 2 2 2 2 1 0 0 -0 -1 -1 -2 -3 -4 -4 -5 -6 -7 -8 -8 -8 -8 -8 -9 -9 -9 -9 -9 -9 -9
1 1 1 1 1 2 4 5 3 3 3 3 3 2 2 1 1 0 0 -0 -1 -1 -2 -2 -3 -3 -4 -5 -6 -7 -7 -8 -9 -9 -9 -9 -9 -9 -9 -9 -9 -9 -9
1 2 2 3 2 3 4 4 3 3 3 2 2 1 1 0 -0 -0 -1 -1 -1 -2 -3 -3 -3 -4 -5 -6 -7 -7 -7 -8 -8 -8 -9 -9 -9 -9 -9 -9 -9 -9 -9
2 3 4 4 3 3 3 3 2 2 2 1 1 0 -0 -0 -1 -1 -2 -2 -2 -3 -3 -4 -4 -5 -6 -6 -8 -8 -9 -9 -9 -10 -9 -9 -9 -9 -9 -9 -9 -9 -9
3 4 4 4 3 3 2 2 1 1 1 1 0 -0 -1 -1 -1 -2 -2 -3 -3 -4 -4 -5 -6 -6 -7 -8 -8 -8 -9 -9 -10 -10 -10 -10 -10 -10 -10 -9 -9 -9 -9

GEFSMW_850_meantemp_030.txt.gz
Temperature
17 18 18 18 18 18 18 19 19 18 18 17 17 17 17 17 16 15 15 14 14 13 13 12 12 12 11 11 12 12 12 11 11 11 10 10 9 8 8 7 7 6 6
17 17 17 17 17 18 18 18 18 18 18 18 17 17 17 17 17 16 15 15 14 14 13 12 12 12 11 11 11 11 11 11 11 11 10 10 9 8 7 7 7 6 5
16 17 17 17 17 17 17 17 17 18 17 17 17 17 16 16 16 16 15 15 14 14 13 13 12 12 12 11 11 11 11 11 11 11 10 10 10 8 7 7 6 6 5
16 16 16 17 17 17 17 17 17 17 17 17 17 17 17 16 16 16 16 15 15 14 14 13 12 12 12 11 11 11 11 11 11 10 10 10 9 9 8 7 6 6 5
17 17 17 16 16 16 16 16 16 17 17 17 17 16 17 17 17 17 16 16 15 14 14 13 12 12 11 11 11 11 11 10 10 10 9 9 8 8 7 7 6 5 5
17 16 16 16 16 16 16 16 16 16 16 16 16 16 16 16 16 16 16 16 15 14 13 13 12 12 11 11 11 10 10 10 10 9 9 8 8 7 6 5 5 4 5
16 16 16 15 15 15 15 16 16 16 16 16 16 16 16 16 16 16 16 16 15 14 13 12 12 11 11 10 10 10 10 9 9 8 8 7 7 6 5 4 3 3 3
14 15 15 15 15 15 15 15 15 15 15 15 15 15 15 16 16 16 16 15 15 14 14 12 12 11 10 10 9 9 9 8 8 8 7 6 6 5 4 3 2 1 1
13 13 13 13 14 14 14 14 14 14 15 15 15 14 15 15 15 15 15 14 14 13 12 12 11 10 9 9 8 8 8 8 7 7 6 5 5 4 3 2 1 0 -2
12 12 11 12 12 13 13 13 14 14 14 14 14 14 14 14 15 15 14 13 12 12 11 11 10 9 8 8 7 7 7 7 6 6 5 5 4 3 2 2 1 -0 -2
11 11 11 11 11 11 12 12 13 13 13 13 13 13 13 13 13 13 13 12 11 11 10 10 8 7 7 7 6 6 6 6 5 5 4 4 3 2 2 1 0 -1 -2
10 10 10 10 10 10 11 11 12 12 13 13 12 12 12 12 12 12 11 11 10 10 9 8 7 6 6 6 6 5 5 5 4 4 3 3 2 1 1 0 -1 -1 -2
8 8 9 9 9 9 10 11 11 11 12 12 11 11 11 11 11 11 10 10 9 9 7 6 5 5 5 5 5 4 4 4 3 3 2 2 1 1 0 -1 -1 -2 -3
7 7 7 8 8 8 9 9 10 10 10 10 10 10 10 10 10 10 9 9 8 7 5 4 4 4 4 4 4 3 3 3 2 2 1 1 0 -0 -1 -2 -3 -4 -5
6 6 7 7 7 7 8 8 9 9 9 9 9 9 9 9 9 8 7 6 5 4 4 3 3 3 3 3 2 2 2 2 1 1 0 0 -0 -1 -2 -4 -5 -6 -6
5 5 6 6 6 6 6 7 7 7 7 7 7 8 7 7 6 6 5 4 3 3 2 2 2 2 1 1 1 1 1 1 0 0 -0 -1 -1 -2 -3 -5 -6 -6 -7
3 4 5 5 5 5 5 5 5 5 5 5 5 5 4 4 4 3 3 2 2 1 1 1 1 1 1 1 1 0 -0 -0 -0 -1 -1 -1 -2 -3 -4 -5 -6 -7 -7
2 3 3 4 4 4 4 4 4 3 3 3 2 2 2 2 2 2 1 1 1 0 1 1 1 0 0 -0 -0 -1 -1 -1 -1 -2 -2 -3 -3 -4 -5 -6 -7 -8 -8
1 2 2 2 2 2 2 2 2 2 2 1 1 1 1 1 1 1 1 0 0 0 0 -0 -0 -0 -1 -1 -1 -1 -1 -2 -2 -2 -3 -4 -5 -5 -6 -8 -8 -9 -8
1 1 1 1 1 1 1 1 1 1 0 0 0 0 1 1 1 1 0 0 0 -0 -0 -1 -1 -1 -1 -2 -2 -2 -2 -3 -3 -3 -4 -5 -6 -7 -8 -9 -9 -9 -9
0 0 0 1 0 -0 0 1 0 0 -0 -0 0 0 1 1 1 0 0 -0 -1 -1 -1 -1 -2 -2 -2 -3 -3 -4 -4 -4 -4 -5 -5 -6 -7 -8 -9 -9 -9 -9 -9
0 0 0 0 0 -0 0 0 0 0 0 1 1 1 1 0 0 -0 -1 -1 -1 -1 -1 -2 -2 -2 -3 -3 -4 -4 -5 -6 -6 -6 -7 -7 -8 -9 -9 -9 -9 -9 -9
1 1 1 1 1 1 1 1 1 1 1 1 1 0 -0 -0 -1 -1 -1 -1 -2 -2 -2 -2 -2 -3 -3 -4 -5 -5 -6 -7 -8 -8 -8 -9 -9 -9 -9 -9 -9 -9 -9
2 2 2 2 2 2 2 2 1 1 1 1 0 -0 -0 -1 -1 -1 -2 -2 -2 -2 -2 -3 -3 -4 -4 -5 -6 -6 -7 -8 -8 -9 -9 -9 -9 -9 -9 -9 -9 -9 -9
2 2 3 2 2 2 2 2 1 1 1 0 -0 -1 -1 -1 -1 -2 -2 -2 -2 -2 -3 -3 -4 -5 -5 -6 -7 -8 -9 -9 -10 -10 -9 -9 -9 -9 -8 -8 -8 -8 -9
2 2 3 2 2 2 1 1 1 1 1 0 -0 -1 -1 -1 -1 -2 -2 -2 -3 -3 -4 -5 -5 -6 -7 -8 -8 -9 -9 -9 -10 -10 -9 -9 -9 -9 -9 -9 -9 -8 -8

GEFSMW_850_meantemp_036.txt.gz
Temperature
16 17 17 17 17 17 17 17 17 17 18 18 17 17 17 17 17 17 16 16 15 15 14 14 13 12 12 12 11 11 11 11 11 11 10 10 10 9 9 8 8 8 7
16 16 16 16 16 17 17 17 17 17 17 17 18 18 18 18 17 17 17 16 16 15 15 14 14 13 12 12 11 11 11 11 11 11 11 10 10 10 9 9 8 8 7
14 15 15 16 16 16 17 17 17 17 17 17 17 16 16 16 16 16 16 16 16 16 15 15 14 14 13 12 12 11 11 11 11 11 11 11 11 10 9 9 8 8 7
13 14 15 15 15 16 16 16 16 16 16 16 16 16 16 15 16 16 16 16 16 16 16 15 15 14 13 13 12 12 11 11 11 11 11 11 11 10 10 9 9 8 7
12 13 13 14 14 15 15 15 16 16 16 16 16 16 16 16 16 16 16 16 16 16 16 15 15 14 14 13 13 12 11 11 11 11 11 10 10 10 10 9 9 8 7
12 12 13 13 13 14 14 14 15 15 15 15 15 16 16 16 16 15 15 15 15 15 15 15 15 15 14 14 13 12 12 11 11 11 11 11 10 10 10 9 9 8 7
12 12 12 12 13 13 13 13 14 14 14 15 15 15 15 15 15 15 15 15 15 15 15 15 15 15 14 14 13 12 11 11 11 10 10 10 9 9 9 8 8 7 6
11 11 11 11 11 12 12 12 13 13 14 14 14 14 15 14 15 15 15 15 15 15 15 15 15 15 14 13 12 11 11 10 10 9 9 9 8 8 8 7 7 6 5
10 10 10 10 10 11 11 11 12 12 13 13 13 14 14 14 14 14 14 14 14 14 14 14 14 14 14 13 12 11 10 9 9 8 8 8 7 7 6 6 5 4 3
10 9 9 9 9 9 10 10 11 11 11 12 12 13 13 13 13 13 13 13 13 13 13 13 13 13 13 12 11 10 9 8 7 7 7 6 6 5 4 4 3 2 2
9 8 8 8 8 9 9 9 9 10 10 11 11 12 12 12 13 13 12 12 11 11 11 12 12 11 11 10 10 9 8 7 6 5 5 4 4 3 3 2 2 1 0
8 7 7 7 8 8 8 8 8 9 9 10 10 11 11 12 12 11 11 10 10 10 10 10 10 10 10 9 8 7 6 5 5 4 4 3 2 2 1 0 -0 -1 -1
7 6 6 6 6 7 7 7 7 8 8 9 9 10 10 10 10 10 9 9 9 9 9 9 9 9 8 8 6 5 4 4 3 3 3 2 1 0 -0 -1 -1 -2 -2
5 5 5 5 5 6 6 6 7 7 7 8 8 9 9 9 8 8 8 8 8 8 8 8 8 7 6 5 4 3 3 3 3 2 2 1 0 -0 -1 -2 -2 -3 -3
4 3 3 4 4 5 5 5 6 6 6 7 7 8 8 8 7 7 7 7 7 7 7 7 6 5 3 3 3 3 3 2 2 2 1 0 -1 -1 -2 -2 -3 -4 -4
2 2 2 3 3 4 4 4 5 5 5 6 6 6 6 6 6 6 6 6 5 5 5 4 3 2 2 2 2 2 2 2 1 1 -0 -1 -2 -2 -3 -3 -4 -5 -5
1 1 1 1 2 2 3 3 3 3 4 4 4 4 4 4 4 4 4 3 3 2 2 1 1 1 1 1 1 1 1 1 0 -0 -1 -2 -2 -3 -3 -4 -4 -5 -5
1 1 1 1 1 1 1 1 2 2 2 2 2 2 2 2 2 2 2 1 1 0 0 0 0 1 1 1 1 1 0 -0 -1 -2 -2 -3 -3 -4 -4 -5 -5 -6 -6
1 0 0 0 0 0 0 1 1 1 1 1 1 1 1 1 1 0 0 0 -0 -0 -0 -0 0 0 0 0 -0 -0 -1 -2 -2 -3 -3 -4 -4 -4 -5 -7 -8 -8 -7
1 0 -0 -0 -0 -0 -0 -0 0 0 0 -0 -0 -0 -0 -0 -0 -0 -0 -0 -0 -0 -0 -0 -0 -0 -1 -1 -1 -2 -2 -3 -3 -4 -4 -5 -5 -6 -7 -8 -9 -8 -8
1 1 0 0 0 -0 -0 -0 -0 -0 -1 -0 -0 -0 -0 -0 -0 -0 -0 -0 -0 -0 -0 -0 -1 -1 -2 -2 -3 -3 -3 -4 -4 -5 -5 -6 -6 -8 -9 -9 -9 -9 -9
2 2 1 1 1 0 0 0 -0 -0 -0 -0 -0 -0 -0 -0 -0 -0 -0 -0 -0 -1 -1 -1 -2 -2 -3 -3 -4 -4 -5 -5 -6 -6 -6 -7 -8 -9 -9 -9 -9 -9 -9
3 3 2 2 2 1 1 1 1 0 0 0 0 0 0 -0 -0 -1 -1 -1 -1 -1 -2 -2 -2 -3 -4 -4 -5 -5 -6 -6 -7 -7 -7 -8 -8 -8 -8 -8 -8 -8 -8
4 3 3 3 2 2 1 1 1 1 1 1 0 -0 -0 -0 -1 -1 -1 -2 -2 -2 -2 -3 -3 -4 -4 -5 -5 -6 -6 -7 -7 -8 -8 -8 -8 -8 -8 -8 -8 -8 -9
4 3 3 3 2 2 2 1 1 1 1 0 0 -0 -1 -1 -1 -1 -2 -2 -2 -3 -3 -4 -4 -4 -5 -6 -7 -8 -8 -8 -8 -8 -8 -8 -8 -8 -8 -8 -8 -8 -8
4 3 3 3 2 2 2 1 1 0 0 0 -0 -1 -1 -1 -2 -2 -2 -3 -3 -3 -4 -4 -5 -5 -6 -7 -7 -8 -8 -8 -8 -8 -8 -8 -9 -9 -9 -9 -8 -8 -8

GEFSMW_850_meantemp_042.txt.gz
Temperature
14 14 15 16 16 16 16 16 16 17 16 16 15 16 16 17 18 18 18 17 17 16 16 15 15 14 14 13 13 12 12 11 11 11 10 10 10 10 10 10 9 9 9
13 13 14 14 15 16 16 16 16 16 16 16 16 16 16 16 17 17 17 17 17 17 16 16 15 15 14 14 13 12 12 12 11 10 10 9 9 10 10 10 10 9 9
12 12 12 13 14 15 15 16 16 16 16 16 16 15 15 15 15 16 17 17 17 17 16 16 15 15 15 14 14 13 12 12 11 11 10 10 10 10 11 11 10 9 9
11 10 11 12 13 13 14 14 15 15 15 16 15 15 14 14 15 15 16 16 16 16 16 15 15 14 15 14 14 13 13 12 12 11 11 11 11 11 10 10 10 10 9
10 10 10 11 12 13 13 13 14 14 15 15 15 15 14 13 13 13 14 14 15 15 15 14 14 14 14 14 14 14 13 12 12 12 11 11 10 11 11 10 10 10 9
10 10 10 11 11 12 13 13 13 13 14 14 14 14 14 13 13 13 13 13 13 14 14 14 13 13 13 14 14 14 13 13 12 12 12 11 11 11 10 10 10 10 10
10 9 10 10 11 11 12 12 13 13 13 13 13 13 13 13 13 13 13 12 12 12 13 13 13 13 13 13 12 12 13 12 12 11 12 11 11 11 11 10 10 9 9
9 9 9 9 9 10 10 11 11 12 12 12 12 13 13 13 13 13 12 12 12 12 12 12 12 12 12 11 11 11 11 11 11 11 10 10 10 10 10 10 9 9 7
9 8 8 8 8 9 9 9 10 10 10 11 11 11 12 12 12 12 12 12 12 12 12 12 12 11 11 10 10 10 10 10 10 10 10 10 10 9 8 8 8 8 7
9 8 7 7 7 8 8 8 8 8 9 9 9 10 10 11 11 11 12 12 12 12 12 11 11 11 10 9 9 9 9 9 9 10 9 9 8 8 7 7 7 6 6
8 7 6 6 7 7 7 7 7 7 8 8 8 9 9 10 10 10 11 11 11 11 11 11 10 10 9 9 9 9 9 9 9 9 9 8 7 6 6 5 5 5 4
6 6 5 5 5 6 6 6 6 7 7 7 7 8 8 8 9 9 10 10 10 10 10 10 9 9 8 8 8 9 9 8 8 8 7 6 5 4 4 4 4 3 3
6 5 4 4 4 5 5 5 6 6 6 6 7 7 7 8 8 8 8 9 9 9 9 9 8 8 8 8 8 8 8 7 7 6 5 4 3 3 3 3 2 2 2
5 4 3 3 3 4 4 5 5 5 6 6 6 6 7 7 7 7 7 8 8 8 7 7 7 7 7 7 7 6 6 5 4 3 2 2 2 2 2 2 1 1 1
4 3 2 2 2 3 3 4 4 5 5 5 5 6 6 6 6 6 6 6 6 6 6 6 6 5 5 5 5 4 4 3 2 1 1 1 1 1 1 1 0 -0 -1
3 2 1 1 1 2 3 3 4 4 4 4 4 4 4 4 4 4 4 4 4 4 4 4 3 3 3 2 2 2 1 1 1 1 1 1 1 0 -0 -0 -1 -1 -2
2 1 1 1 1 1 2 2 2 3 3 3 3 3 2 2 2 2 2 3 2 2 2 1 1 1 0 0 -0 -0 0 0 0 0 0 -0 -1 -1 -1 -2 -2 -2 -3
2 1 1 1 1 1 1 1 2 2 2 2 1 1 1 1 1 1 1 1 1 0 0 -0 -0 -1 -1 -1 -0 -0 -0 -0 -0 -1 -1 -2 -2 -2 -2 -2 -3 -3 -4
3 2 1 1 1 1 1 1 1 1 1 1 1 0 0 0 0 -0 -0 -0 -0 -1 -1 -1 -1 -1 -1 -1 -1 -1 -1 -1 -1 -2 -2 -2 -3 -3 -3 -4 -4 -5 -6
3 2 2 1 1 1 1 1 1 1 0 0 0 0 0 0 -0 -1 -1 -1 -1 -1 -1 -1 -1 -1 -1 -2 -2 -2 -2 -2 -2 -3 -3 -3 -4 -4 -5 -6 -6 -6 -6
4 3 3 2 2 1 1 1 1 1 0 0 0 0 -0 -0 -0 -1 -1 -1 -1 -1 -1 -1 -2 -2 -2 -2 -3 -3 -3 -3 -3 -4 -4 -4 -5 -5 -6 -7 -7 -7 -7
4 4 3 3 2 2 1 1 1 1 0 0 0 0 -0 -0 -0 -0 -1 -1 -1 -1 -1 -2 -2 -2 -3 -3 -3 -3 -4 -4 -4 -5 -5 -6 -6 -7 -7 -7 -7 -7 -7
4 4 4 3 3 2 2 2 1 1 1 0 0 0 -0 -0 -1 -1 -1 -1 -1 -2 -2 -2 -3 -3 -3 -4 -4 -5 -5 -5 -6 -6 -7 -7 -7 -7 -7 -7 -7 -7 -8
4 4 4 3 3 2 2 2 1 1 0 0 0 -0 -0 -0 -1 -1 -1 -1 -2 -2 -2 -3 -3 -4 -4 -5 -5 -6 -6 -7 -7 -7 -7 -7 -7 -8 -8 -8 -8 -8 -8
4 4 4 3 3 3 2 2 1 1 1 0 0 -0 -0 -1 -1 -1 -2 -2 -2 -3 -3 -4 -4 -5 -6 -6 -6 -7 -8 -8 -8 -8 -8 -8 -8 -8 -8 -8 -8 -8 -8
4 4 4 3 3 3 2 2 1 1 0 0 0 -0 -1 -1 -1 -2 -2 -2 -3 -3 -4 -4 -5 -6 -6 -7 -7 -8 -8 -8 -8 -8 -8 -8 -9 -8 -8 -8 -8 -8 -8